Wind_Speed
2 3 3 3 3 3 3 4 5 5 5 5 5 5 5 5 5 5 5 5 5 5 5 5 5 5 5 5 5 5 5 5 6 5 5 6 6 6 5 5 4 5 5
2 2 2 3 3 3 4 5 5 5 5 5 5 5 6 6 6 6 6 6 6 6 5 5 5 5 6 6 5 5 6 6 6 6 6 6 7 7 6 6 6 6 6
2 1 1 2 3 3 4 5 5 5 5 5 5 6 6 6 6 7 7 7 7 7 7 6 6 6 6 6 6 6 6 7 7 7 7 7 8 8 8 8 7 7 7
2 1 1 2 2 3 4 4 5 5 5 6 6 6 7 7 7 7 8 8 8 8 8 7 7 7 6 6 6 6 7 7 7 8 8 8 9 9 9 9 9 8 8
2 1 1 1 2 3 4 4 5 5 5 6 7 7 7 7 8 8 8 8 8 8 8 8 8 8 7 7 6 7 7 7 8 8 9 9 10 10 10 9 10 9 9
2 1 0 1 2 3 3 4 4 5 6 6 7 7 7 8 8 9 9 9 9 9 9 9 8 8 8 7 7 7 7 7 8 8 9 9 10 11 11 10 10 11 10
1 0 1 1 2 3 3 4 4 5 6 7 7 8 8 8 9 10 10 10 10 10 10 9 9 8 8 8 8 8 8 8 8 8 9 9 10 10 11 11 11 12 11
2 1 0 1 1 2 3 4 4 5 6 7 8 8 9 9 10 10 10 10 10 10 10 10 9 9 8 8 8 8 8 8 8 9 9 9 9 10 11 11 12 12 12
1 0 0 1 1 2 3 4 5 5 6 7 8 8 9 10 10 11 11 10 10 10 10 10 9 9 8 8 8 8 8 8 8 8 9 9 10 10 11 12 12 13 13
2 0 0 1 2 3 4 4 5 6 6 7 8 9 9 10 11 11 11 11 10 10 9 9 9 9 9 8 9 9 8 8 8 9 9 9 10 11 12 12 13 13 13
2 1 1 1 2 3 4 5 5 5 6 7 8 9 10 10 11 11 11 11 11 11 10 10 9 9 9 9 9 8 8 8 9 9 9 10 10 11 12 12 13 13 14
2 1 0 1 2 3 4 5 5 5 6 7 8 9 10 11 11 11 11 11 11 11 11 10 10 9 9 9 8 8 8 8 8 8 9 10 10 11 11 11 12 13 14
3 1 0 1 2 3 4 5 6 6 7 7 8 9 10 11 11 11 11 12 12 12 11 10 9 9 8 8 8 7 7 7 7 8 9 9 10 11 11 11 12 13 14
3 2 0 1 2 3 4 5 6 6 7 7 8 9 10 11 11 12 12 12 13 12 11 10 9 9 8 8 7 6 6 6 7 7 8 9 10 10 11 10 11 12 14
3 2 0 1 2 3 4 5 6 6 7 8 9 10 10 11 11 12 13 13 13 13 12 11 11 10 9 8 7 6 6 6 6 7 8 8 8 9 10 10 11 12 13
3 2 1 1 2 3 4 5 6 6 7 8 9 9 10 11 11 12 13 14 14 13 13 12 11 10 9 8 7 6 6 6 6 6 7 8 8 9 9 10 11 12 13
4 3 1 1 2 3 4 5 6 6 7 8 9 9 10 11 12 13 13 14 14 14 13 12 12 11 10 9 8 7 6 6 6 7 7 8 8 9 9 10 11 12 12
3 3 2 1 2 3 4 5 6 6 7 8 8 9 10 11 12 13 14 14 14 14 13 12 12 11 11 9 9 8 7 7 7 7 7 7 7 8 9 10 10 11 12
3 2 2 1 2 3 4 5 6 6 7 8 8 9 10 11 13 13 14 14 14 14 13 12 12 12 11 10 10 9 8 8 8 7 7 7 8 8 8 9 10 10 12
3 2 1 2 2 3 4 4 5 6 6 7 8 9 10 12 13 13 14 14 14 14 13 13 13 12 12 11 11 10 8 8 8 8 8 7 8 8 8 8 9 10 11
4 2 1 2 2 3 3 4 4 5 6 7 8 9 11 12 13 13 14 14 14 14 14 13 13 13 12 12 12 11 9 9 8 8 8 8 8 8 8 8 8 9 11
4 3 2 2 2 2 3 3 4 5 6 7 9 10 10 12 13 13 14 14 15 14 14 14 13 13 13 12 12 11 11 10 9 9 9 9 9 9 8 8 8 9 9
4 4 3 3 2 3 3 4 4 6 7 8 9 9 10 11 12 13 14 15 14 14 14 14 13 13 13 13 12 12 11 11 10 10 10 9 9 9 8 8 8 9 9
5 4 4 3 3 3 3 4 5 6 7 8 9 10 10 11 12 13 14 15 15 14 14 14 14 13 14 14 13 13 12 12 11 11 10 10 10 10 10 9 9 9 9
6 5 5 4 4 4 4 5 6 7 7 8 9 10 11 11 12 13 14 15 15 15 15 15 14 14 14 15 15 14 13 13 12 12 11 11 10 10 10 10 10 10 9
7 7 6 6 6 6 6 6 7 8 8 9 10 10 11 12 13 14 15 15 16 15 15 15 15 16 16 16 15 14 14 14 14 13 13 12 12 11 11 11 10 10 10
Wind_Direction
143 125 101 73 57 48 41 34 28 20 17 15 10 7 1 0 4 6 1 356 351 343 335 327 322 317 307 299 289 280 272 264 256 254 250 244 239 233 223 220 212 206 208
146 142 122 62 53 46 39 26 21 15 9 7 9 6 3 2 0 2 359 354 349 343 337 327 323 316 309 301 295 287 274 269 260 253 251 245 240 235 231 226 223 218 215
147 133 115 58 53 38 20 12 11 7 2 5 8 11 10 7 2 358 357 353 348 343 339 331 325 321 311 303 296 289 278 267 262 255 251 247 242 237 234 232 230 226 220
147 110 83 61 41 19 7 5 7 8 12 15 15 15 13 10 2 356 355 351 347 342 339 334 326 320 313 303 296 290 283 272 261 256 253 248 242 240 237 234 231 228 221
150 143 101 34 10 10 8 10 12 14 18 19 18 13 8 5 1 355 351 348 346 341 336 331 325 318 311 305 295 290 284 276 266 260 253 249 243 241 239 236 232 229 225
151 149 9 355 358 6 11 14 12 10 11 10 11 8 5 3 358 351 347 342 339 335 330 325 320 313 304 299 294 290 284 277 271 264 258 254 246 243 239 238 237 231 229
178 229 322 356 355 358 5 7 7 7 7 7 7 5 2 359 353 348 343 338 335 332 328 323 319 314 303 294 290 286 282 277 271 266 262 258 250 246 242 242 240 236 233
209 235 289 10 0 360 1 5 6 4 3 3 3 2 360 354 349 345 343 338 334 331 328 323 320 314 305 295 289 283 280 276 270 265 261 259 252 250 246 244 242 240 238
199 231 317 22 10 359 360 360 359 2 2 2 2 1 358 355 352 347 345 341 338 334 330 325 319 314 305 297 290 285 280 274 269 266 263 260 253 251 250 245 243 243 242
202 237 70 49 18 3 3 360 355 358 2 4 3 1 358 356 353 349 347 345 343 339 332 327 321 317 310 299 292 288 281 273 270 265 263 260 258 255 252 248 244 244 244
200 215 119 46 18 3 3 2 359 0 3 4 1 359 358 356 353 351 349 349 347 343 336 329 322 317 311 303 296 291 284 278 274 268 264 262 262 260 257 251 245 245 245
205 204 133 22 4 6 5 6 1 357 0 0 358 358 358 356 357 357 355 354 350 346 341 334 328 322 315 306 297 293 287 280 276 270 266 264 263 261 260 258 251 246 246
201 184 109 5 358 7 10 8 3 359 1 359 357 0 0 359 360 1 1 357 352 349 346 342 337 330 321 312 303 297 291 285 277 272 268 265 264 263 262 260 256 252 248
186 172 107 11 13 15 12 10 6 3 0 358 0 1 1 3 4 4 2 359 357 355 353 350 347 339 331 326 318 308 300 290 279 275 271 268 266 264 262 260 259 255 248
192 189 251 356 17 21 13 9 8 6 5 4 1 2 3 3 3 3 3 1 1 359 357 355 354 351 346 340 335 326 317 303 288 281 278 277 273 269 264 261 260 255 247
205 207 219 352 6 20 13 8 6 5 5 4 3 3 4 3 4 3 3 2 1 1 359 358 357 355 354 351 345 337 328 314 299 291 285 281 277 273 267 264 261 254 249
209 216 221 344 2 8 6 4 1 1 1 3 4 5 6 5 4 2 2 1 0 360 359 359 360 0 358 354 349 341 335 328 315 303 294 287 283 277 270 265 261 256 249
212 223 235 300 345 358 2 1 359 358 360 1 3 6 6 4 3 3 3 2 1 2 3 3 3 1 360 357 352 348 339 330 323 314 305 295 290 283 275 268 263 258 250
221 225 242 285 327 349 355 358 358 359 1 0 1 3 4 4 4 3 3 2 3 4 5 5 5 3 1 358 353 348 341 334 326 320 313 304 298 289 281 271 265 258 250
227 237 253 295 321 337 349 355 356 360 360 358 359 3 4 3 3 1 1 2 2 3 3 3 2 1 0 359 357 353 345 340 332 327 320 311 305 297 287 277 268 261 253
232 247 262 299 318 333 345 350 352 353 352 353 357 359 360 359 358 358 358 358 360 1 1 359 359 358 357 355 354 353 351 345 335 329 322 317 311 304 292 283 276 268 260
231 238 252 284 303 318 332 342 344 341 342 348 351 352 354 353 354 355 355 355 355 357 357 356 356 357 356 354 351 349 347 343 338 333 327 322 318 311 300 291 284 275 267
230 238 250 277 292 302 313 322 325 329 335 340 342 346 348 349 351 353 355 355 354 355 355 354 353 353 353 352 350 347 345 342 339 335 333 325 318 314 307 297 289 281 273
234 241 254 268 281 289 299 308 315 322 328 332 336 341 343 345 347 350 352 353 353 352 351 351 352 351 349 347 345 342 340 339 335 331 327 324 319 312 307 301 292 285 277
238 244 252 261 273 284 291 298 308 316 323 328 332 336 339 341 344 347 347 349 349 348 348 348 347 346 343 341 339 337 335 334 331 328 326 322 318 313 306 300 297 289 282
243 248 253 260 269 277 284 292 301 310 317 322 326 330 332 335 338 341 343 345 346 346 345 343 343 341 338 336 335 333 330 327 325 322 318 316 315 312 308 301 296 289 282
Height
5891 5892 5892 5892 5892 5893 5892 5892 5892 5892 5891 5890 5890 5889 5889 5888 5888 5887 5887 5886 5886 5885 5885 5885 5884 5884 5884 5884 5884 5884 5884 5884 5884 5884 5885 5886 5886 5887 5888 5888 5889 5890 5891
5892 5892 5892 5892 5893 5893 5893 5892 5892 5892 5891 5890 5890 5889 5889 5888 5888 5887 5886 5886 5885 5885 5884 5884 5883 5883 5883 5883 5883 5883 5883 5883 5883 5883 5884 5885 5885 5886 5887 5888 5889 5890 5890
5892 5892 5893 5893 5893 5893 5893 5893 5892 5892 5891 5890 5890 5889 5889 5888 5888 5887 5886 5886 5885 5884 5884 5883 5882 5882 5882 5882 5881 5881 5881 5882 5882 5882 5883 5883 5884 5885 5886 5887 5888 5889 5890
5892 5893 5893 5894 5893 5893 5893 5893 5892 5892 5891 5890 5890 5889 5889 5888 5887 5887 5886 5885 5884 5884 5883 5882 5882 5881 5881 5880 5880 5880 5880 5880 5880 5881 5881 5882 5883 5884 5885 5886 5887 5888 5889
5893 5893 5894 5894 5893 5893 5893 5893 5892 5892 5891 5891 5890 5889 5889 5888 5887 5886 5885 5885 5884 5883 5882 5881 5880 5880 5879 5879 5879 5878 5878 5878 5879 5879 5880 5880 5881 5882 5883 5884 5885 5887 5888
5893 5893 5894 5894 5894 5893 5893 5893 5892 5892 5891 5891 5890 5889 5888 5887 5887 5886 5885 5884 5883 5882 5881 5880 5879 5878 5878 5877 5877 5877 5877 5877 5877 5877 5878 5879 5880 5880 5881 5883 5884 5885 5887
5893 5894 5894 5894 5894 5893 5893 5893 5892 5892 5891 5891 5890 5889 5888 5887 5886 5885 5884 5883 5881 5880 5879 5878 5877 5877 5876 5876 5875 5875 5875 5875 5875 5876 5876 5877 5878 5879 5880 5881 5882 5884 5885
5893 5894 5894 5894 5894 5894 5893 5893 5892 5892 5891 5890 5890 5889 5888 5887 5885 5884 5883 5881 5880 5879 5878 5876 5875 5875 5874 5874 5873 5873 5873 5873 5873 5874 5874 5875 5876 5877 5878 5879 5881 5882 5883
5893 5894 5894 5894 5894 5894 5893 5893 5892 5892 5891 5890 5890 5889 5887 5886 5885 5883 5882 5880 5879 5877 5876 5875 5874 5873 5872 5872 5871 5871 5871 5871 5872 5872 5873 5873 5874 5875 5876 5878 5879 5880 5882
5893 5894 5894 5894 5894 5894 5893 5893 5892 5892 5891 5890 5889 5888 5887 5886 5884 5883 5881 5879 5877 5876 5874 5873 5872 5871 5870 5870 5869 5869 5869 5869 5870 5870 5871 5872 5872 5873 5874 5876 5877 5878 5880
5893 5893 5894 5894 5894 5894 5893 5893 5892 5892 5891 5890 5889 5888 5887 5886 5884 5882 5880 5878 5876 5874 5873 5872 5870 5869 5868 5867 5867 5867 5867 5867 5868 5869 5869 5870 5870 5871 5872 5873 5875 5876 5877
5893 5893 5894 5894 5894 5894 5894 5893 5892 5892 5891 5890 5889 5888 5887 5885 5883 5881 5879 5877 5875 5873 5872 5870 5869 5867 5866 5865 5865 5865 5865 5865 5866 5867 5867 5868 5868 5869 5870 5871 5872 5873 5875
5893 5893 5894 5894 5894 5894 5893 5893 5892 5892 5891 5890 5889 5888 5886 5885 5883 5881 5879 5877 5875 5872 5870 5869 5867 5865 5864 5864 5863 5863 5863 5863 5864 5864 5865 5865 5866 5867 5867 5869 5870 5871 5872
5893 5893 5894 5894 5894 5894 5893 5893 5892 5891 5891 5890 5889 5888 5886 5884 5883 5881 5879 5876 5874 5871 5869 5867 5866 5864 5863 5862 5862 5861 5861 5862 5862 5862 5863 5863 5864 5864 5865 5866 5867 5869 5870
5893 5893 5893 5894 5894 5893 5893 5893 5892 5891 5891 5890 5888 5887 5886 5884 5883 5881 5878 5876 5874 5871 5869 5867 5865 5863 5862 5861 5860 5860 5860 5860 5860 5861 5861 5861 5861 5862 5863 5864 5865 5866 5867
5892 5893 5893 5894 5893 5893 5893 5893 5892 5891 5890 5890 5888 5887 5886 5884 5882 5880 5878 5876 5873 5871 5869 5867 5865 5863 5861 5860 5859 5858 5858 5858 5858 5859 5859 5859 5859 5860 5861 5862 5863 5864 5865
5892 5893 5893 5893 5893 5893 5893 5892 5892 5891 5891 5890 5888 5887 5886 5884 5882 5880 5878 5876 5873 5871 5868 5866 5864 5862 5861 5860 5858 5858 5857 5856 5857 5857 5857 5857 5858 5858 5858 5859 5860 5861 5862
5892 5892 5892 5893 5893 5893 5893 5892 5892 5891 5891 5890 5889 5887 5886 5884 5882 5880 5878 5876 5873 5871 5868 5866 5864 5863 5861 5859 5858 5857 5857 5856 5856 5855 5855 5856 5856 5856 5856 5857 5858 5859 5860
5891 5892 5892 5892 5893 5893 5892 5892 5892 5891 5891 5890 5889 5887 5886 5884 5882 5880 5878 5876 5873 5871 5868 5866 5865 5863 5861 5859 5858 5857 5856 5855 5855 5854 5854 5854 5854 5854 5854 5855 5855 5856 5857
5890 5891 5892 5892 5892 5892 5892 5892 5892 5891 5891 5890 5889 5887 5886 5884 5882 5880 5878 5876 5873 5871 5869 5867 5865 5863 5861 5859 5858 5856 5855 5854 5854 5853 5853 5853 5852 5852 5852 5853 5853 5854 5855
5890 5891 5891 5891 5892 5892 5892 5892 5892 5891 5891 5890 5889 5887 5886 5884 5882 5880 5878 5876 5873 5871 5869 5867 5865 5863 5861 5859 5857 5856 5855 5854 5853 5852 5851 5851 5851 5850 5850 5851 5851 5852 5852
5889 5890 5890 5891 5891 5891 5892 5891 5891 5891 5891 5890 5888 5887 5886 5884 5882 5880 5878 5876 5873 5871 5869 5867 5864 5862 5861 5859 5857 5856 5854 5854 5852 5851 5850 5850 5849 5849 5848 5849 5849 5849 5850
5888 5889 5890 5890 5890 5891 5891 5891 5891 5891 5890 5889 5888 5887 5885 5884 5882 5880 5877 5875 5873 5871 5868 5866 5864 5862 5860 5858 5857 5855 5854 5852 5851 5850 5849 5848 5847 5847 5846 5846 5847 5847 5847
5887 5888 5889 5889 5890 5890 5890 5891 5890 5890 5889 5889 5887 5886 5885 5883 5881 5879 5877 5874 5872 5870 5868 5866 5863 5861 5859 5857 5856 5854 5852 5851 5850 5849 5848 5846 5845 5845 5844 5844 5844 5844 5845
5886 5887 5888 5888 5889 5889 5889 5890 5889 5889 5888 5887 5886 5885 5884 5882 5880 5878 5876 5874 5871 5869 5867 5865 5863 5860 5858 5856 5854 5852 5850 5849 5847 5846 5845 5844 5843 5843 5842 5842 5842 5842 5842
5885 5885 5886 5887 5887 5888 5888 5888 5888 5888 5887 5886 5885 5884 5883 5881 5879 5877 5875 5873 5870 5868 5866 5864 5861 5859 5857 5854 5852 5850 5848 5847 5845 5844 5843 5842 5841 5840 5839 5839 5839 5839 5839